{"data":{"norad_id":53424,"epoch":"2026-09-19T19:12:01.291680Z","epoch_age_seconds":135922,"freshness":"FRESH","line1":"1 53424U 22097AN  26262.80001495 -.00000720  00000+0 -11443-4 0  9990","line2":"2 53424  53.1592 310.0797 0001013  80.3067 279.8049 15.31698062228126","mean_motion":15.31698062,"eccentricity":0.0001013,"inclination_deg":53.1592,"raan_deg":310.0797,"arg_perigee_deg":80.3067,"mean_anomaly_deg":279.8049,"bstar":-1.1443e-5,"rev_number":22812,"period_min":94.013306912443,"perigee_km":470.05198048406,"apogee_km":471.43956413373,"semimajor_km":6848.8827723089,"source":"CELESTRAK","updated_at":"2026-09-20T09:00:40.230528Z"}}